Location: ???????
(55.4362°N, 38.1183°E)
Time: 13:41:28
(UTC+00:00)

M-CUBED/EXP-1 PRIME - Pass Details

Date: 06 December 2021
Orbit: 426 x 650 km, 101.7° (Epoch: 28 January)

Event Time Altitude Azimuth Distance (km) Brightness Sun altitude
Rises 14:01:40 0° 135° (SE) 2,825 ? -8.2°
Reaches altitude 10° 14:03:51 10° 128° (SE) 1,959 ? -8.5°
Maximum altitude 14:07:52 43° 58° (ENE) 896 ? -9.0°
Drops below altitude 10° 14:12:06 10° 348° (NNW) 2,056 ? -9.5°
Sets 14:14:26 0° 342° (NNW) 2,983 ? -9.8°
